TimeEST,TemperatureF,Dew PointF,Humidity,Sea Level PressureIn,VisibilityMPH,Wind Direction,Wind SpeedMPH,Gust SpeedMPH,PrecipitationIn,Events,Conditions,WindDirDegrees,DateUTC
12:53 AM,63.0,62.1,97,30.06,9.0,NNW,5.8,-,N/A,,Clear,340,2013-02-09 05:53:00
1:53 AM,62.1,60.1,93,30.06,10.0,North,4.6,-,N/A,,Clear,10,2013-02-09 06:53:00
2:53 AM,60.1,57.9,93,30.06,10.0,North,10.4,16.1,N/A,,Clear,10,2013-02-09 07:53:00
3:53 AM,59.0,57.0,93,30.05,10.0,NNE,6.9,-,N/A,,Clear,20,2013-02-09 08:53:00
4:53 AM,57.9,55.9,93,30.05,10.0,NE,6.9,-,N/A,,Clear,40,2013-02-09 09:53:00
5:53 AM,57.9,57.0,97,30.08,9.0,NNE,4.6,-,N/A,,Partly Cloudy,20,2013-02-09 10:53:00
6:22 AM,57.2,57.2,100,30.09,8.0,NNE,5.8,-,N/A,,Scattered Clouds,30,2013-02-09 11:22:00
6:30 AM,57.2,57.2,100,30.09,6.0,NE,5.8,-,N/A,,Mostly Cloudy,40,2013-02-09 11:30:00
6:37 AM,57.2,57.2,100,30.09,2.5,NE,4.6,-,N/A,,Mostly Cloudy,40,2013-02-09 11:37:00
6:51 AM,57.2,57.2,100,30.09,1.8,NE,5.8,-,N/A,,Overcast,50,2013-02-09 11:51:00
6:53 AM,57.9,57.9,100,30.09,1.8,NE,5.8,-,N/A,,Overcast,50,2013-02-09 11:53:00
7:00 AM,57.2,57.2,100,30.09,2.5,NE,8.1,-,N/A,,Overcast,50,2013-02-09 12:00:00
7:17 AM,57.2,57.2,100,30.09,0.8,NE,9.2,-,N/A,,Overcast,50,2013-02-09 12:17:00
7:27 AM,57.2,57.2,100,30.10,0.5,NE,8.1,-,N/A,Fog,Fog,50,2013-02-09 12:27:00
7:53 AM,59.0,59.0,100,30.11,0.8,NNE,6.9,-,N/A,,Overcast,30,2013-02-09 12:53:00
8:02 AM,59.0,59.0,100,30.11,1.5,NNE,8.1,-,N/A,,Overcast,30,2013-02-09 13:02:00
8:12 AM,59.0,59.0,100,30.12,2.5,NNE,9.2,-,N/A,,Overcast,30,2013-02-09 13:12:00
8:20 AM,60.8,60.8,100,30.12,3.0,NNE,9.2,-,N/A,,Overcast,30,2013-02-09 13:20:00
8:43 AM,60.8,60.8,100,30.13,8.0,NE,10.4,-,N/A,,Scattered Clouds,40,2013-02-09 13:43:00
8:53 AM,63.0,60.1,90,30.13,9.0,NE,15.0,-,N/A,,Clear,40,2013-02-09 13:53:00
9:53 AM,68.0,60.1,76,30.14,10.0,NE,10.4,-,N/A,,Clear,40,2013-02-09 14:53:00
10:53 AM,72.0,61.0,68,30.15,10.0,NE,11.5,-,N/A,,Clear,50,2013-02-09 15:53:00
11:53 AM,75.0,62.1,64,30.14,10.0,NE,12.7,-,N/A,,Partly Cloudy,50,2013-02-09 16:53:00
12:53 PM,78.1,62.1,58,30.12,10.0,East,8.1,-,N/A,,Partly Cloudy,80,2013-02-09 17:53:00
1:53 PM,80.1,62.1,54,30.10,10.0,ENE,11.5,-,N/A,,Partly Cloudy,60,2013-02-09 18:53:00
2:53 PM,81.0,59.0,47,30.09,10.0,ENE,8.1,-,N/A,,Partly Cloudy,60,2013-02-09 19:53:00
3:53 PM,81.0,59.0,47,30.08,10.0,NE,5.8,-,N/A,,Partly Cloudy,50,2013-02-09 20:53:00
4:53 PM,80.1,59.0,48,30.09,10.0,ENE,6.9,-,N/A,,Mostly Cloudy,60,2013-02-09 21:53:00
5:53 PM,77.0,59.0,54,30.09,10.0,NE,6.9,-,N/A,,Clear,40,2013-02-09 22:53:00
6:53 PM,73.9,61.0,64,30.10,10.0,ENE,10.4,-,N/A,,Clear,60,2013-02-09 23:53:00
7:53 PM,72.0,59.0,64,30.12,10.0,ENE,10.4,-,N/A,,Partly Cloudy,60,2013-02-10 00:53:00
8:53 PM,71.1,61.0,70,30.14,10.0,East,11.5,-,N/A,,Mostly Cloudy,80,2013-02-10 01:53:00
9:53 PM,71.1,62.1,73,30.15,10.0,East,10.4,-,N/A,,Mostly Cloudy,80,2013-02-10 02:53:00
10:53 PM,69.1,62.1,78,30.16,10.0,East,9.2,-,N/A,,Scattered Clouds,80,2013-02-10 03:53:00
11:53 PM,69.1,62.1,78,30.16,10.0,East,8.1,-,N/A,,Overcast,90,2013-02-10 04:53:00